Location: Poughquag
(41.6090°N, 73.6820°W)
Time: 11:21:05
(UTC-04:00)

Tiros 1 - Pass Details

Date: 29 May 2020
Orbit: 630 x 664 km, 48.4° (Epoch: 06 July)

Event Time Altitude Azimuth Distance (km) Brightness Sun altitude
Rises 16:09:50 0° 277° (W) 2,956 11.3 44.3°
Reaches altitude 10° 16:12:20 10° 285° (WNW) 2,041 10.6 43.8°
Maximum altitude 16:16:42 37° 353° (N) 1,004 8.5 43.0°
Drops below altitude 10° 16:21:01 10° 61° (ENE) 2,023 9.4 42.2°
Sets 16:23:29 0° 70° (ENE) 2,927 10.1 41.8°
